Location: Bastrop State Park
(30.1090°N, 97.2819°W)
Time: 02:48:51

ISS - Visible Passes

Search period start: 23 October 2016 00:00
Search period end: 02 November 2016 00:00
Orbit: 399 x 408 km, 51.6° (Epoch: 23 October)

Date Brightness Start Highest point End Pass type
(mag) Time Alt. Az. Time Alt. Az. Time Alt. Az.
29 Oct -0.4 07:05:01 10° S 07:07:30 20° SE 07:09:58 10° ENE visible
31 Oct -2.9 06:55:36 10° SW 06:58:49 64° SE 07:02:04 10° NE visible
01 Nov -1.2 06:04:44 17° S 06:06:26 26° SE 06:09:14 10° ENE visible
